Benton Harbor, MI

4:18 PM EST on March 01, 2017 (GMT -0500)
Southwest Michigan Regional

Weather History for KBEH - November, 2013

Change the Weather History Date:

Tuesday, November 5, 2013

  Actual Average Record
Temperature  
Mean Temperature 52 °F -  
Max Temperature 55 °F 51 °F 76 °F (1978)
Min Temperature 50 °F 34 °F 14 °F (1991)
Degree Days  
Heating Degree Days 12    
Growing Degree Days 2 (Base 50)    
Moisture  
Dew Point 46 °F    
Average Humidity 79    
Maximum Humidity 96    
Minimum Humidity 69    
Precipitation  
Precipitation 0.00 in - - ()
Sea Level Pressure  
Sea Level Pressure 30.23 in    
Wind  
Wind Speed 7 mph (SSE)    
Max Wind Speed 14 mph    
Max Gust Speed 22 mph    
Visibility 8 miles    
Events Rain    
Averages and records for this station are not official NWS values.
T = Trace of Precipitation, MM = Missing Value Source: NWS Daily Summary

Daily Weather History Graph

Daily Weather History Graph

Search for Another Location

Airport or City:

Trip Planner

Search our weather history database for the weather conditions in past years. The results will help you decide how hot, cold, wet, or windy it might be!

Date:

Astronomy

Nov. 05, 2013 Rise Set
Actual Time 7:23 AM EST 5:34 PM EST
Civil Twilight 6:54 AM EST 6:03 PM EST
Nautical Twilight 6:21 AM EST 6:36 PM EST
Astronomical Twilight 5:48 AM EST 7:09 PM EST
Moon 9:39 AM EST (11/5) 7:33 PM EST (11/5)
Length of Visible Light 11h 09m
Length of Day
10h 10m
Waxing Crescent, 6% of the Moon is Illuminated
Nov 5
Waxing Crescent
Nov 10
First Quarter
Nov 17
Full
Nov 25
Last Quarter
Dec 2
New

Hourly Weather History & Observations

Time (EST) Temp. Dew Point Humidity Pressure Visibility Wind Dir Wind Speed Gust Speed Precip Events Conditions
12:53 AM 51.1 °F 42.1 °F 71% 30.24 in 10.0 mi South 9.2 mph - N/A   Overcast
1:53 AM 51.1 °F 42.1 °F 71% 30.24 in 10.0 mi South 5.8 mph - N/A   Overcast
2:53 AM 51.1 °F 43.0 °F 74% 30.25 in 10.0 mi SSW 5.8 mph - N/A   Overcast
3:53 AM 51.1 °F 43.0 °F 74% 30.25 in 10.0 mi South 6.9 mph - N/A   Overcast
4:53 AM 51.1 °F 43.0 °F 74% 30.27 in 10.0 mi South 5.8 mph - N/A   Overcast
5:53 AM 50.0 °F 43.0 °F 77% 30.28 in 10.0 mi South 4.6 mph - N/A   Overcast
6:53 AM 50.0 °F 43.0 °F 77% 30.29 in 10.0 mi South 4.6 mph - N/A   Overcast
7:53 AM 50.0 °F 44.1 °F 80% 30.29 in 10.0 mi SSE 4.6 mph - N/A   Overcast
8:53 AM 50.0 °F 44.1 °F 80% 30.31 in 9.0 mi South 5.8 mph - N/A   Overcast
9:53 AM 52.0 °F 45.0 °F 77% 30.30 in 9.0 mi South 9.2 mph - N/A   Overcast
10:53 AM 53.1 °F 45.0 °F 74% 30.30 in 9.0 mi South 5.8 mph - N/A   Overcast
11:53 AM 55.0 °F 46.0 °F 72% 30.30 in 10.0 mi SSE 8.1 mph - N/A   Overcast
12:53 PM 55.0 °F 46.9 °F 74% 30.27 in 8.0 mi South 6.9 mph - N/A   Mostly Cloudy
1:12 PM 53.6 °F 46.4 °F 77% 30.27 in 9.0 mi South 9.2 mph - N/A   Overcast
1:51 PM 51.8 °F 48.2 °F 88% 30.26 in 2.5 mi South 9.2 mph - 0.00 in Rain Light Rain
1:53 PM 51.1 °F 48.9 °F 92% 30.27 in 2.5 mi South 8.1 mph - 0.00 in Rain Light Rain
2:12 PM 51.8 °F 50.0 °F 94% 30.25 in 3.0 mi South 8.1 mph - 0.00 in   Overcast
2:35 PM 51.8 °F 50.0 °F 94% 30.24 in 4.0 mi SE 5.8 mph - 0.00 in   Overcast
2:53 PM 51.1 °F 50.0 °F 96% 30.25 in 5.0 mi SSE 4.6 mph - 0.00 in   Overcast
3:28 PM 51.8 °F 48.2 °F 88% 30.23 in 6.0 mi SE 5.8 mph - N/A   Overcast
3:53 PM 52.0 °F 48.9 °F 89% 30.22 in 7.0 mi ESE 4.6 mph - N/A   Mostly Cloudy
4:53 PM 53.1 °F 48.0 °F 83% 30.19 in 8.0 mi SE 5.8 mph - N/A   Overcast
5:53 PM 53.1 °F 46.9 °F 80% 30.18 in 9.0 mi SE 9.2 mph - N/A   Overcast
6:53 PM 53.1 °F 46.0 °F 77% 30.18 in 8.0 mi SE 10.4 mph - N/A   Overcast
7:53 PM 53.1 °F 46.0 °F 77% 30.16 in 8.0 mi SE 10.4 mph - N/A   Overcast
8:53 PM 53.1 °F 45.0 °F 74% 30.13 in 9.0 mi SSE 10.4 mph - N/A   Overcast
9:53 PM 53.1 °F 44.1 °F 71% 30.11 in 10.0 mi SSE 9.2 mph 19.6 mph N/A   Mostly Cloudy
10:53 PM 54.0 °F 44.1 °F 69% 30.08 in 10.0 mi SSE 13.8 mph 20.7 mph N/A   Mostly Cloudy
11:53 PM 54.0 °F 44.1 °F 69% 30.05 in 10.0 mi SSE 13.8 mph 21.9 mph 0.00 in   Overcast